Time,TemperatureF,DewpointF,PressureIn,WindDirection,WindDirectionDegrees,WindSpeedMPH,WindSpeedGustMPH,Humidity,HourlyPrecipIn,Conditions,Clouds,dailyrainin,SoftwareType,DateUTC
2013-03-27 00:02:00,21.2,16.3,29.67,SW,225,1.1,-999.0,81,-99.99,,,0.00,Acu-Link.com,2013-03-27 06:02:00,
2013-03-27 00:17:00,20.5,16.2,29.67,SW,225,1.7,-999.0,83,-99.99,,,0.00,Acu-Link.com,2013-03-27 06:17:00,
2013-03-27 00:32:00,19.2,15.2,29.68,SW,225,2.7,-999.0,84,-99.99,,,0.00,Acu-Link.com,2013-03-27 06:32:00,
2013-03-27 00:47:00,19.0,15.2,29.68,SW,225,1.1,-999.0,85,-99.99,,,0.00,Acu-Link.com,2013-03-27 06:47:00,
2013-03-27 01:02:00,18.7,15.5,29.69,SW,225,1.7,-999.0,87,-99.99,,,0.00,Acu-Link.com,2013-03-27 07:02:00,
2013-03-27 01:33:00,18.7,16.3,29.69,SW,225,1.7,-999.0,90,-99.99,,,0.00,Acu-Link.com,2013-03-27 07:33:00,
2013-03-27 01:48:00,18.7,16.3,29.68,SW,225,0.0,-999.0,90,-99.99,,,0.00,Acu-Link.com,2013-03-27 07:48:00,
2013-03-27 02:03:00,19.2,16.8,29.68,SW,225,1.1,-999.0,90,-99.99,,,0.00,Acu-Link.com,2013-03-27 08:03:00,
2013-03-27 02:19:00,19.0,16.8,29.68,SW,225,1.1,-999.0,91,-99.99,,,0.00,Acu-Link.com,2013-03-27 08:19:00,
2013-03-27 02:34:00,19.0,16.8,29.68,SW,225,1.7,-999.0,91,-99.99,,,0.00,Acu-Link.com,2013-03-27 08:34:00,
2013-03-27 02:49:00,18.7,17.0,29.67,SW,225,1.1,-999.0,93,-99.99,,,0.00,Acu-Link.com,2013-03-27 08:49:00,
2013-03-27 03:04:00,18.9,17.7,29.67,SW,225,1.7,-999.0,95,-99.99,,,0.00,Acu-Link.com,2013-03-27 09:04:00,
2013-03-27 03:19:00,19.0,18.1,29.67,SW,225,1.7,-999.0,96,-99.99,,,0.00,Acu-Link.com,2013-03-27 09:19:00,
2013-03-27 03:34:00,19.0,18.3,29.68,SW,225,0.0,-999.0,97,-99.99,,,0.00,Acu-Link.com,2013-03-27 09:34:00,
2013-03-27 03:49:00,19.6,18.9,29.68,SW,225,0.0,-999.0,97,-99.99,,,0.00,Acu-Link.com,2013-03-27 09:49:00,
2013-03-27 04:05:00,19.2,18.5,29.67,SW,225,0.0,-999.0,97,-99.99,,,0.00,Acu-Link.com,2013-03-27 10:05:00,
2013-03-27 04:20:00,19.8,19.1,29.68,SW,225,2.2,-999.0,97,-99.99,,,0.00,Acu-Link.com,2013-03-27 10:20:00,
2013-03-27 04:35:00,20.3,19.3,29.68,SW,225,0.0,-999.0,96,-99.99,,,0.00,Acu-Link.com,2013-03-27 10:35:00,
2013-03-27 04:50:00,20.5,19.5,29.68,SW,225,0.0,-999.0,96,-99.99,,,0.00,Acu-Link.com,2013-03-27 10:50:00,
2013-03-27 05:05:00,21.0,20.0,29.68,SW,225,1.1,-999.0,96,-99.99,,,0.00,Acu-Link.com,2013-03-27 11:05:00,
2013-03-27 05:20:00,21.0,19.8,29.69,SW,225,1.7,-999.0,95,-99.99,,,0.00,Acu-Link.com,2013-03-27 11:20:00,
2013-03-27 05:35:00,21.0,19.8,29.69,SW,225,1.1,-999.0,95,-99.99,,,0.00,Acu-Link.com,2013-03-27 11:35:00,
2013-03-27 05:50:00,21.2,20.0,29.70,SW,225,1.1,-999.0,95,-99.99,,,0.00,Acu-Link.com,2013-03-27 11:50:00,
2013-03-27 06:05:00,21.2,20.2,29.70,SW,225,1.7,-999.0,96,-99.99,,,0.00,Acu-Link.com,2013-03-27 12:05:00,
2013-03-27 06:21:00,21.0,20.3,29.70,SW,225,1.1,-999.0,97,-99.99,,,0.00,Acu-Link.com,2013-03-27 12:21:00,
2013-03-27 06:36:00,20.7,20.0,29.70,SW,225,2.2,-999.0,97,-99.99,,,0.00,Acu-Link.com,2013-03-27 12:36:00,
2013-03-27 07:21:00,20.1,19.6,29.71,SW,225,1.1,-999.0,98,-99.99,,,0.00,Acu-Link.com,2013-03-27 13:21:00,
2013-03-27 07:36:00,20.3,19.6,29.72,SW,225,1.7,-999.0,97,-99.99,,,0.00,Acu-Link.com,2013-03-27 13:36:00,
2013-03-27 07:51:00,20.3,19.6,29.72,SW,225,3.2,-999.0,97,-99.99,,,0.00,Acu-Link.com,2013-03-27 13:51:00,
2013-03-27 08:06:00,21.4,20.4,29.73,SW,225,1.7,-999.0,96,-99.99,,,0.00,Acu-Link.com,2013-03-27 14:06:00,
2013-03-27 08:21:00,22.1,20.4,29.73,SW,225,3.7,-999.0,93,-99.99,,,0.00,Acu-Link.com,2013-03-27 14:21:00,
2013-03-27 08:37:00,23.0,21.0,29.73,SW,225,2.2,-999.0,92,-99.99,,,0.00,Acu-Link.com,2013-03-27 14:37:00,
2013-03-27 08:52:00,24.3,21.5,29.73,SW,225,3.2,-999.0,89,-99.99,,,0.00,Acu-Link.com,2013-03-27 14:52:00,
2013-03-27 09:07:00,27.1,22.3,29.74,SW,225,2.7,-999.0,82,-99.99,,,0.00,Acu-Link.com,2013-03-27 15:07:00,
2013-03-27 09:22:00,29.3,23.0,29.75,SW,225,1.7,-999.0,77,-99.99,,,0.00,Acu-Link.com,2013-03-27 15:22:00,
2013-03-27 09:37:00,30.0,22.4,29.75,SW,225,2.7,-999.0,73,-99.99,,,0.00,Acu-Link.com,2013-03-27 15:37:00,
2013-03-27 09:52:00,28.6,21.1,29.75,SW,225,2.2,-999.0,73,-99.99,,,0.00,Acu-Link.com,2013-03-27 15:52:00,
2013-03-27 10:07:00,29.1,21.5,29.76,SW,225,2.2,-999.0,73,-99.99,,,0.00,Acu-Link.com,2013-03-27 16:07:00,
2013-03-27 10:22:00,35.4,22.1,29.76,SW,225,2.2,-999.0,58,-99.99,,,0.00,Acu-Link.com,2013-03-27 16:22:00,
2013-03-27 10:37:00,34.3,23.0,29.76,SW,225,3.7,-999.0,63,-99.99,,,0.01,Acu-Link.com,2013-03-27 16:37:00,
2013-03-27 10:53:00,37.8,22.2,29.77,SW,225,2.2,-999.0,53,-99.99,,,0.02,Acu-Link.com,2013-03-27 16:53:00,
2013-03-27 11:08:00,33.4,19.4,29.77,SW,225,5.3,-999.0,56,-99.99,,,0.02,Acu-Link.com,2013-03-27 17:08:00,
2013-03-27 11:23:00,32.5,19.4,29.77,SW,225,5.3,-999.0,58,-99.99,,,0.02,Acu-Link.com,2013-03-27 17:23:00,
2013-03-27 11:38:00,39.4,20.9,29.77,NE,45,2.2,-999.0,47,-99.99,,,0.02,Acu-Link.com,2013-03-27 17:38:00,
2013-03-27 11:53:00,41.7,21.4,29.77,SSW,202,4.7,-999.0,44,-99.99,,,0.02,Acu-Link.com,2013-03-27 17:53:00,
2013-03-27 12:08:00,41.7,20.9,29.78,SSW,202,3.7,-999.0,43,-99.99,,,0.02,Acu-Link.com,2013-03-27 18:08:00,
2013-03-27 12:23:00,40.3,20.7,29.77,South,180,3.7,-999.0,45,-99.99,,,0.02,Acu-Link.com,2013-03-27 18:23:00,
2013-03-27 12:38:00,40.5,20.9,29.77,SSW,202,6.3,-999.0,45,-99.99,,,0.02,Acu-Link.com,2013-03-27 18:38:00,
2013-03-27 12:53:00,35.6,21.0,29.78,West,270,1.1,-999.0,55,-99.99,,,0.02,Acu-Link.com,2013-03-27 18:53:00,
2013-03-27 13:09:00,35.8,19.9,29.77,West,270,2.7,-999.0,52,-99.99,,,0.02,Acu-Link.com,2013-03-27 19:09:00,
2013-03-27 13:24:00,34.3,20.7,29.77,West,270,3.2,-999.0,57,-99.99,,,0.02,Acu-Link.com,2013-03-27 19:24:00,
2013-03-27 13:39:00,42.4,22.1,29.78,West,270,15.0,-999.0,44,-99.99,,,0.02,Acu-Link.com,2013-03-27 19:39:00,
2013-03-27 13:54:00,36.9,19.1,29.77,SSW,202,5.8,-999.0,48,-99.99,,,0.02,Acu-Link.com,2013-03-27 19:54:00,
2013-03-27 14:09:00,41.4,18.9,29.77,SSW,202,2.2,-999.0,40,-99.99,,,0.02,Acu-Link.com,2013-03-27 20:09:00,
2013-03-27 14:24:00,36.7,19.8,29.77,SSW,202,2.2,-999.0,50,-99.99,,,0.02,Acu-Link.com,2013-03-27 20:24:00,
2013-03-27 14:39:00,36.0,18.7,29.77,SSW,202,4.2,-999.0,49,-99.99,,,0.02,Acu-Link.com,2013-03-27 20:39:00,
2013-03-27 14:55:00,35.8,18.5,29.77,SSW,202,1.7,-999.0,49,-99.99,,,0.02,Acu-Link.com,2013-03-27 20:55:00,
2013-03-27 15:10:00,38.5,19.0,29.77,SSW,202,3.2,-999.0,45,-99.99,,,0.02,Acu-Link.com,2013-03-27 21:10:00,
2013-03-27 15:25:00,40.5,19.8,29.76,SSW,202,2.7,-999.0,43,-99.99,,,0.02,Acu-Link.com,2013-03-27 21:25:00,
2013-03-27 15:40:00,37.0,18.2,29.77,West,270,3.7,-999.0,46,-99.99,,,0.02,Acu-Link.com,2013-03-27 21:40:00,
2013-03-27 15:55:00,37.4,18.5,29.77,South,180,2.2,-999.0,46,-99.99,,,0.02,Acu-Link.com,2013-03-27 21:55:00,
2013-03-27 16:10:00,38.5,18.0,29.77,SSW,202,5.8,-999.0,43,-99.99,,,0.02,Acu-Link.com,2013-03-27 22:10:00,
2013-03-27 16:25:00,35.8,18.1,29.77,South,180,4.7,-999.0,48,-99.99,,,0.02,Acu-Link.com,2013-03-27 22:25:00,
2013-03-27 16:40:00,36.7,18.9,29.78,West,270,3.2,-999.0,48,-99.99,,,0.02,Acu-Link.com,2013-03-27 22:40:00,
2013-03-27 16:55:00,35.4,19.1,29.77,WSW,247,1.7,-999.0,51,-99.99,,,0.02,Acu-Link.com,2013-03-27 22:55:00,
2013-03-27 17:11:00,35.1,18.8,29.77,ENE,67,4.7,-999.0,51,-99.99,,,0.02,Acu-Link.com,2013-03-27 23:11:00,
2013-03-27 17:56:00,35.2,19.8,29.78,ENE,67,3.2,-999.0,53,-99.99,,,0.02,Acu-Link.com,2013-03-27 23:56:00,
2013-03-27 18:11:00,34.5,18.7,29.78,ENE,67,2.2,-999.0,52,-99.99,,,0.02,Acu-Link.com,2013-03-28 00:11:00,
2013-03-27 18:41:00,32.5,19.4,29.78,ENE,67,4.2,-999.0,58,-99.99,,,0.02,Acu-Link.com,2013-03-28 00:41:00,
2013-03-27 18:56:00,31.8,19.5,29.79,ENE,67,2.2,-999.0,60,-99.99,,,0.02,Acu-Link.com,2013-03-28 00:56:00,
2013-03-27 19:11:00,30.9,20.5,29.80,ENE,67,4.7,-999.0,65,-99.99,,,0.02,Acu-Link.com,2013-03-28 01:11:00,
2013-03-27 19:27:00,30.0,22.7,29.81,ENE,67,3.2,-999.0,74,-99.99,,,0.02,Acu-Link.com,2013-03-28 01:27:00,
2013-03-27 19:42:00,29.8,22.2,29.80,ENE,67,0.0,-999.0,73,-99.99,,,0.02,Acu-Link.com,2013-03-28 01:42:00,
2013-03-27 19:57:00,29.5,22.6,29.80,ENE,67,1.1,-999.0,75,-99.99,,,0.02,Acu-Link.com,2013-03-28 01:57:00,
2013-03-27 20:12:00,29.5,22.6,29.80,ENE,67,1.1,-999.0,75,-99.99,,,0.02,Acu-Link.com,2013-03-28 02:12:00,
2013-03-27 20:27:00,29.3,22.7,29.81,ENE,67,1.7,-999.0,76,-99.99,,,0.02,Acu-Link.com,2013-03-28 02:27:00,
2013-03-27 20:42:00,29.1,22.5,29.81,ENE,67,1.1,-999.0,76,-99.99,,,0.02,Acu-Link.com,2013-03-28 02:42:00,
2013-03-27 20:58:00,28.4,21.8,29.81,ENE,67,1.1,-999.0,76,-99.99,,,0.02,Acu-Link.com,2013-03-28 02:58:00,
2013-03-27 21:13:00,27.7,21.4,29.81,ENE,67,1.1,-999.0,77,-99.99,,,0.02,Acu-Link.com,2013-03-28 03:13:00,
2013-03-27 21:28:00,26.8,21.5,29.82,ENE,67,1.1,-999.0,80,-99.99,,,0.02,Acu-Link.com,2013-03-28 03:28:00,
2013-03-27 21:43:00,26.2,21.2,29.82,ENE,67,1.7,-999.0,81,-99.99,,,0.02,Acu-Link.com,2013-03-28 03:43:00,
2013-03-27 21:58:00,26.1,21.1,29.82,ENE,67,2.2,-999.0,81,-99.99,,,0.02,Acu-Link.com,2013-03-28 03:58:00,
2013-03-27 22:13:00,25.7,21.0,29.82,ENE,67,2.2,-999.0,82,-99.99,,,0.02,Acu-Link.com,2013-03-28 04:13:00,
2013-03-27 22:28:00,25.9,20.9,29.82,ENE,67,3.2,-999.0,81,-99.99,,,0.02,Acu-Link.com,2013-03-28 04:28:00,
2013-03-27 22:43:00,25.5,20.5,29.82,ENE,67,1.1,-999.0,81,-99.99,,,0.02,Acu-Link.com,2013-03-28 04:43:00,
2013-03-27 22:58:00,25.3,20.9,29.82,ENE,67,1.7,-999.0,83,-99.99,,,0.02,Acu-Link.com,2013-03-28 04:58:00,
2013-03-27 23:14:00,25.3,20.6,29.82,ENE,67,2.2,-999.0,82,-99.99,,,0.02,Acu-Link.com,2013-03-28 05:14:00,
2013-03-27 23:29:00,25.2,20.5,29.82,ENE,67,1.7,-999.0,82,-99.99,,,0.02,Acu-Link.com,2013-03-28 05:29:00,
2013-03-27 23:44:00,25.2,20.5,29.82,ENE,67,1.1,-999.0,82,-99.99,,,0.02,Acu-Link.com,2013-03-28 05:44:00,
2013-03-27 23:59:00,25.3,20.6,29.82,ENE,67,1.7,-999.0,82,-99.99,,,0.02,Acu-Link.com,2013-03-28 05:59:00,